Location: ???????
(38.3360°N, 23.6977°E)
Time: 21:03:45
(UTC+00:00)

USA 281 - Pass Details

Date: 17 November 2025
Orbit: 1079 x 1080 km, 106.0° (Epoch: 08 December)

Event Time Altitude Azimuth Distance (km) Brightness Sun altitude
Exits shadow 17:15:09 28° 29° (NNE) 1,897 4.2 -24.2°
Drops below altitude 10° 17:19:08 10° 356° (N) 2,926 5.5 -25.0°
Sets 17:21:54 0° 347° (NNW) 3,885 6.2 -25.6°
